Location: Peebles
(55.6412°N, 3.1714°W)
Time: 01:20:00
(UTC+01:00)

deb r/b Ablestar - Pass Details

Date: 06 July 2022
Orbit: 859 x 1154 km, 67.2° (Epoch: 13 August)

Event Time Altitude Azimuth Distance (km) Brightness Sun altitude
Rises 01:11:13 0° 318° (NW) 4,012 ? -11.6°
Reaches altitude 10° 01:13:55 10° 316° (NW) 3,061 ? -11.6°
Maximum altitude 01:21:13 69° 235° (SW) 1,228 ? -11.6°
Enters shadow 01:28:19 10° 154° (SSE) 2,992 ? -11.6°
